• In Spain
  • List of Countries
  • For 7 days
  • Water Temperature
  • Satellite Maps
  • Weather Map
  • Weather Widgets
  • user-avatar
    Login

    Hourly Weather Bolshaya Krasavka

    Today, 22 July, Sunday

    Time Temperature Precipitation Wind Pressure Humidity
    00:00 +19°C° 0 mm 3 mps 735 mmHg 96%
    01:00 +19°C° 0 mm 3 mps 735 mmHg 97%
    02:00 +18°C° 0 mm 2 mps 735 mmHg 98%
    03:00 +19°C° 0.1 mm 3 mps 735 mmHg 97%
    04:00 +19°C° 0.1 mm 4 mps 735 mmHg 97%
    05:00 +19°C° 0.1 mm 4 mps 735 mmHg 97%
    06:00 +19°C° 0.2 mm 4 mps 735 mmHg 96%
    07:00 +20°C° 0.2 mm 5 mps 735 mmHg 95%
    08:00 +20°C° 0.2 mm 5 mps 736 mmHg 94%
    09:00 +20°C° 0.1 mm 5 mps 736 mmHg 93%
    10:00 +20°C° 0.1 mm 5 mps 736 mmHg 92%
    11:00 +21°C° 0.1 mm 5 mps 736 mmHg 91%
    12:00 +21°C° 0 mm 5 mps 736 mmHg 90%
    13:00 +21°C° 0 mm 5 mps 735 mmHg 89%
    14:00 +22°C° 0 mm 5 mps 735 mmHg 87%
    15:00 +22°C° 0.1 mm 5 mps 735 mmHg 87%
    16:00 +22°C° 0.1 mm 5 mps 735 mmHg 87%
    17:00 +22°C° 0.1 mm 5 mps 735 mmHg 86%
    18:00 +21°C° 0.2 mm 5 mps 735 mmHg 88%
    19:00 +21°C° 0.2 mm 5 mps 735 mmHg 90%
    20:00 +20°C° 0.2 mm 5 mps 735 mmHg 93%
    21:00 +20°C° 0.4 mm 5 mps 735 mmHg 93%
    22:00 +19°C° 0.4 mm 5 mps 735 mmHg 94%
    23:00 +19°C° 0.4 mm 5 mps 735 mmHg 95%

    Tomorrow, 23 July, Monday

    Time Temperature Precipitation Wind Pressure Humidity
    00:00 +19°C° 0 mm 5 mps 735 mmHg 95%
    01:00 +19°C° 0 mm 5 mps 735 mmHg 94%
    02:00 +19°C° 0 mm 5 mps 735 mmHg 94%
    03:00 +19°C° 0 mm 5 mps 735 mmHg 94%
    04:00 +17°C° 0 mm 5 mps 735 mmHg 94%
    05:00 +17°C° 0 mm 5 mps 735 mmHg 95%
    06:00 +17°C° 0.1 mm 5 mps 735 mmHg 94%
    07:00 +17°C° 0.1 mm 5 mps 735 mmHg 93%
    08:00 +17°C° 0.1 mm 5 mps 736 mmHg 92%
    09:00 +17°C° 0.1 mm 5 mps 736 mmHg 92%
    10:00 +19°C° 0.1 mm 5 mps 736 mmHg 91%
    11:00 +19°C° 0.1 mm 5 mps 736 mmHg 90%
    12:00 +19°C° 0.1 mm 5 mps 736 mmHg 89%
    13:00 +19°C° 0.1 mm 5 mps 736 mmHg 89%
    14:00 +20°C° 0.1 mm 5 mps 736 mmHg 88%
    15:00 +20°C° 0.1 mm 5 mps 736 mmHg 88%
    16:00 +20°C° 0.1 mm 5 mps 736 mmHg 89%
    17:00 +21°C° 0.1 mm 5 mps 736 mmHg 89%
    18:00 +20°C° 0.5 mm 5 mps 736 mmHg 91%
    19:00 +20°C° 0.5 mm 4 mps 736 mmHg 93%
    20:00 +20°C° 0.5 mm 4 mps 736 mmHg 95%
    21:00 +20°C° 0.7 mm 4 mps 736 mmHg 95%
    22:00 +20°C° 0.7 mm 4 mps 736 mmHg 96%
    23:00 +20°C° 0.7 mm 4 mps 736 mmHg 97%

    Day after tomorrow, 24 July, Tuesday

    Time Temperature Precipitation Wind Pressure Humidity
    00:00 +20°C° 0.1 mm 4 mps 736 mmHg 97%
    01:00 +20°C° 0.1 mm 4 mps 736 mmHg 97%
    02:00 +20°C° 0.1 mm 3 mps 736 mmHg 97%
    03:00 +19°C° 0 mm 3 mps 737 mmHg 97%
    04:00 +19°C° 0 mm 3 mps 737 mmHg 97%
    05:00 +19°C° 0 mm 3 mps 737 mmHg 96%
    06:00 +21°C° 0.1 mm 3 mps 737 mmHg 93%
    07:00 +22°C° 0.1 mm 3 mps 738 mmHg 90%
    08:00 +24°C° 0.1 mm 3 mps 738 mmHg 86%
    09:00 +25°C° 0.6 mm 4 mps 738 mmHg 82%
    10:00 +26°C° 0.6 mm 4 mps 738 mmHg 78%
    11:00 +27°C° 0.6 mm 4 mps 738 mmHg 74%
    12:00 +27°C° 0.6 mm 4 mps 739 mmHg 75%
    13:00 +27°C° 0.6 mm 4 mps 739 mmHg 76%
    14:00 +27°C° 0.6 mm 4 mps 739 mmHg 77%
    15:00 +26°C° 0.9 mm 4 mps 739 mmHg 81%
    16:00 +25°C° 0.9 mm 4 mps 739 mmHg 84%
    17:00 +23°C° 0.9 mm 4 mps 740 mmHg 88%
    18:00 +22°C° 0.6 mm 4 mps 740 mmHg 90%
    19:00 +21°C° 0.6 mm 4 mps 740 mmHg 92%
    20:00 +20°C° 0.6 mm 4 mps 740 mmHg 95%
    21:00 +20°C° 0.1 mm 4 mps 740 mmHg 95%
    22:00 +19°C° 0.1 mm 3 mps 740 mmHg 95%
    23:00 +19°C° 0.1 mm 3 mps 741 mmHg 95%

    25 July, Wednesday

    Time Temperature Precipitation Wind Pressure Humidity
    00:00 +19°C° 0 mm 3 mps 741 mmHg 94%
    01:00 +19°C° 0 mm 3 mps 741 mmHg 93%
    02:00 +18°C° 0 mm 3 mps 740 mmHg 92%
    03:00 +18°C° 0.2 mm 4 mps 740 mmHg 91%
    04:00 +17°C° 0.2 mm 5 mps 740 mmHg 89%
    05:00 +17°C° 0.2 mm 5 mps 740 mmHg 88%
    06:00 +19°C° 0.1 mm 6 mps 741 mmHg 85%
    07:00 +19°C° 0.1 mm 6 mps 741 mmHg 81%
    08:00 +20°C° 0.1 mm 6 mps 741 mmHg 78%
    09:00 +21°C° 0.1 mm 6 mps 741 mmHg 75%
    10:00 +21°C° 0.1 mm 7 mps 741 mmHg 73%
    11:00 +22°C° 0.1 mm 7 mps 741 mmHg 70%
    12:00 +23°C° 0 mm 7 mps 741 mmHg 69%
    13:00 +24°C° 0 mm 7 mps 742 mmHg 68%
    14:00 +26°C° 0 mm 7 mps 742 mmHg 67%
    15:00 +24°C° 0.1 mm 6 mps 742 mmHg 69%
    16:00 +24°C° 0.1 mm 6 mps 742 mmHg 71%
    17:00 +25°C° 0.1 mm 5 mps 742 mmHg 73%
    18:00 +23°C° 0 mm 5 mps 742 mmHg 75%
    19:00 +22°C° 0 mm 5 mps 742 mmHg 77%
    20:00 +21°C° 0 mm 4 mps 742 mmHg 79%
    21:00 +20°C° 0 mm 4 mps 742 mmHg 79%
    22:00 +20°C° 0 mm 4 mps 743 mmHg 79%
    23:00 +20°C° 0 mm 4 mps 743 mmHg 79%

    26 July, Thursday

    Time Temperature Precipitation Wind Pressure Humidity
    00:00 +19°C° 0 mm 4 mps 743 mmHg 80%
    01:00 +19°C° 0 mm 4 mps 743 mmHg 81%
    02:00 +19°C° 0 mm 4 mps 743 mmHg 81%
    03:00 +18°C° 0 mm 4 mps 743 mmHg 83%
    04:00 +18°C° 0 mm 4 mps 743 mmHg 84%
    05:00 +18°C° 0 mm 4 mps 743 mmHg 85%
    06:00 +19°C° 0 mm 5 mps 743 mmHg 82%
    07:00 +21°C° 0 mm 5 mps 744 mmHg 79%
    08:00 +22°C° 0 mm 6 mps 744 mmHg 76%
    09:00 +23°C° 0 mm 6 mps 744 mmHg 74%
    10:00 +25°C° 0 mm 5 mps 744 mmHg 73%
    11:00 +26°C° 0 mm 5 mps 744 mmHg 71%
    12:00 +26°C° 0 mm 5 mps 744 mmHg 71%
    13:00 +26°C° 0 mm 5 mps 744 mmHg 71%
    14:00 +27°C° 0 mm 5 mps 744 mmHg 71%
    15:00 +27°C° 0 mm 5 mps 744 mmHg 73%
    16:00 +26°C° 0 mm 4 mps 744 mmHg 74%
    17:00 +26°C° 0 mm 4 mps 744 mmHg 76%
    18:00 +25°C° 0.1 mm 4 mps 744 mmHg 77%
    19:00 +23°C° 0.1 mm 4 mps 745 mmHg 79%
    20:00 +22°C° 0.1 mm 4 mps 745 mmHg 80%
    21:00 +22°C° 0.3 mm 4 mps 745 mmHg 82%
    22:00 +22°C° 0.3 mm 3 mps 745 mmHg 84%
    23:00 +21°C° 0.3 mm 3 mps 745 mmHg 87%

    27 July, Friday

    Time Temperature Precipitation Wind Pressure Humidity
    00:00 +21°C° 0.1 mm 3 mps 745 mmHg 88%
    01:00 +21°C° 0.1 mm 3 mps 745 mmHg 90%
    02:00 +20°C° 0.1 mm 3 mps 746 mmHg 91%
    03:00 +20°C° 0.2 mm 3 mps 746 mmHg 91%
    04:00 +20°C° 0.2 mm 3 mps 746 mmHg 91%
    05:00 +20°C° 0.2 mm 3 mps 746 mmHg 90%
    06:00 +21°C° 0 mm 4 mps 746 mmHg 86%
    07:00 +22°C° 0 mm 4 mps 746 mmHg 81%
    08:00 +25°C° 0 mm 5 mps 747 mmHg 76%
    09:00 +26°C° 0 mm 5 mps 747 mmHg 71%
    10:00 +27°C° 0 mm 5 mps 747 mmHg 66%
    11:00 +28°C° 0 mm 6 mps 747 mmHg 61%
    12:00 +28°C° 0 mm 5 mps 747 mmHg 60%
    13:00 +29°C° 0 mm 5 mps 746 mmHg 60%
    14:00 +29°C° 0 mm 5 mps 746 mmHg 59%
    15:00 +28°C° 0 mm 4 mps 746 mmHg 63%
    16:00 +28°C° 0 mm 4 mps 746 mmHg 67%
    17:00 +27°C° 0 mm 3 mps 746 mmHg 72%
    18:00 +26°C° 0 mm 3 mps 746 mmHg 75%
    19:00 +24°C° 0 mm 3 mps 746 mmHg 78%
    20:00 +22°C° 0 mm 3 mps 746 mmHg 80%
    21:00 +21°C° 0 mm 3 mps 746 mmHg 82%
    22:00 +21°C° 0 mm 3 mps 746 mmHg 83%
    23:00 +20°C° 0 mm 3 mps 746 mmHg 84%
    Show more